Flag for Burundi Weather past 2 weeks in Gitega, Burundi

Now
61 °F

Passing clouds.


Feels Like: 61 °F
Forecast: 56 / 77 °F
Wind: No wind

Location: Kigali Airport

Current Time: Aug 1, 2014 at 6:10:52 AM

Latest Report: Aug 1, 2014 at 5:30 AM


Visibility: N/A

Pressure: 30.18 "Hg

Humidity: 83%

Dew point: 55 °F

Location of GitegaLocation

Historic Weather in Gitega — Graph

°F

Gitega temperature yesterday

Maximum temperature yesterday: 82 °F (at 3:30 PM)
Minimum temperature yesterday: 61 °F (at 6:30 AM)
Average temperature yesterday: 72 °F

Past Weeks' High & Low Weather Summary

 TemperatureHumidityPressure
High84 °F (Jul 19, 2:00 PM)100% (Jul 19, 4:00 AM)30.27 "Hg (Jul 19, 4:00 AM)
Low55 °F (Jul 19, 4:00 AM)32% (Jul 23, 3:00 PM)30.07 "Hg (Jul 25, 3:00 PM)
Average72 °F61%30.17 "Hg
* Reported Jul 17 5:00 AM — Aug 1 5:00 AM, Gitega, Weather by CustomWeather, © 2014

Note: Actual official high and low records may vary slightly from our data, if they occured in-between our weather recording intervals... More about our weather records

Advertising

Gitega weather history for previous 24 hours

 ConditionsComfort  
Time TempWeatherWind HumidityBarometerVisibility
5:00 AM
Aug 1
63 °FPassing clouds.5 mph73%30.15 "HgN/A
4:30 AM64 °FPassing clouds.5 mph68%30.15 "HgN/A
4:00 AM63 °FPassing clouds.5 mph73%30.15 "HgN/A
3:30 AM63 °FPassing clouds.3 mph77%30.15 "HgN/A
3:00 AM64 °FPassing clouds.6 mph68%30.15 "HgN/A
2:00 AM64 °FPassing clouds.5 mph68%30.15 "HgN/A
1:30 AM64 °FPassing clouds.5 mph68%30.15 "HgN/A
1:00 AM64 °FPassing clouds.5 mph68%30.18 "HgN/A
12:00 AM66 °FPassing clouds.No wind64%30.18 "HgN/A
11:30 PM
Jul 31
68 °FPassing clouds.6 mph64%30.18 "HgN/A
11:00 PM68 °FPassing clouds.No wind64%30.18 "HgN/A
10:00 PM70 °FPassing clouds.No wind57%30.18 "HgN/A
9:30 PM72 °FPassing clouds.No wind53%30.18 "HgN/A
9:00 PM72 °FPassing clouds.3 mph53%30.18 "HgN/A
8:30 PM73 °FPassing clouds.3 mph50%30.15 "HgN/A
8:00 PM75 °FPassing clouds.3 mph47%30.15 "HgN/A
6:30 PM79 °FPassing clouds.7 mph42%30.15 "HgN/A
6:00 PM79 °FPassing clouds.6 mph39%30.12 "HgN/A
5:30 PM81 °FPassing clouds.6 mph37%30.12 "HgN/A
5:00 PM81 °FPassing clouds.8 mph37%30.12 "HgN/A
4:30 PM82 °FScattered clouds.6 mph40%30.12 "HgN/A
4:00 PM82 °FScattered clouds.5 mph37%30.12 "HgN/A
3:30 PM82 °FScattered clouds.7 mph37%30.15 "HgN/A
3:00 PM81 °FScattered clouds.7 mph39%30.15 "HgN/A
2:30 PM79 °FScattered clouds.9 mph42%30.15 "HgN/A
2:00 PM79 °FScattered clouds.8 mph42%30.18 "HgN/A
1:30 PM81 °FScattered clouds.5 mph39%30.18 "HgN/A
1:00 PM77 °FScattered clouds.10 mph44%30.21 "HgN/A
12:30 PM79 °FScattered clouds.9 mph42%30.21 "HgN/A
12:00 PM77 °FScattered clouds.12 mph44%30.24 "HgN/A
11:30 AM77 °FPassing clouds.12 mph44%30.24 "HgN/A
11:00 AM75 °FPassing clouds.12 mph47%30.27 "HgN/A
10:30 AM75 °FPassing clouds.10 mph50%30.27 "HgN/A
10:00 AM73 °FPassing clouds.9 mph53%30.27 "HgN/A
9:30 AM72 °FPassing clouds.12 mph57%30.27 "HgN/A
9:00 AM72 °FSunny.10 mph53%30.27 "Hg10 mi
8:30 AM70 °FClear.3 mph60%30.27 "Hg5 mi
8:00 AM68 °FClear.3 mph64%30.27 "Hg5 mi
7:30 AM64 °FPassing clouds.No wind73%30.24 "Hg5 mi
7:00 AM63 °FScattered clouds.No wind73%30.18 "HgN/A
6:30 AM61 °FPassing clouds.No wind83%30.21 "HgN/A
6:00 AM63 °FPassing clouds.No wind77%30.21 "HgN/A
Weather by CustomWeather, © 2014

See weather overviewHow to use our weather pages